EW1490 Weather Reports


Display with metric or nautical units.
time (UTC)temp
F
wind
direction
speed
MPH
gust
MPH
rain 1hr
in
rain 24hr
in
rain mn
in
humidity
%
barometer
mb
20260506161029 74 150 3.0 9.0 0.00 0.00 0.00 82 1014.2
20260506160528 74 140 5.0 14.0 0.00 0.00 0.00 81 1014.1
20260506160031 74 195 6.0 14.0 0.00 0.00 0.00 81 1014.0
20260506155519 74 203 5.0 12.0 0.00 0.00 0.00 81 1014.1
20260506155021 73 144 6.0 12.0 0.00 0.00 0.00 82 1014.1
20260506154523 73 170 4.0 12.0 0.00 0.00 0.00 82 1014.1
20260506154024 73 121 6.0 12.0 0.00 0.00 0.00 81 1014.2
20260506153524 74 127 7.0 12.0 0.00 0.00 0.00 81 1014.3
20260506153044 74 194 5.0 14.0 0.00 0.00 0.00 81 1014.3
20260506152543 74 209 6.0 14.0 0.00 0.00 0.00 81 1014.3
20260506152023 74 168 6.0 14.0 0.00 0.00 0.00 81 1014.3
20260506151524 74 216 5.0 11.0 0.00 0.00 0.00 82 1014.4
20260506151025 74 259 5.0 15.0 0.00 0.00 0.00 80 1014.3
20260506150527 74 176 5.0 15.0 0.00 0.00 0.00 81 1014.4
20260506150028 73 160 4.0 22.0 0.00 0.00 0.00 82 1014.4
20260506145513 73 209 8.0 22.0 0.00 0.00 0.00 82 1014.3
20260506145031 73 218 5.0 14.0 0.00 0.00 0.00 84 1014.5
20260506144530 72 163 3.0 11.0 0.00 0.00 0.00 84 1014.5
20260506144018 72 175 5.0 13.0 0.00 0.00 0.00 84 1014.6
20260506143521 72 273 7.0 13.0 0.00 0.00 0.00 85 1014.5
20260506143023 72 202 7.0 13.0 0.00 0.00 0.00 85 1014.5
20260506142525 71 141 7.0 13.0 0.00 0.00 0.00 85 1014.5
20260506142030 71 178 7.0 12.0 0.00 0.00 0.00 85 1014.4
20260506141529 71 167 5.0 10.0 0.00 0.00 0.00 87 1014.4
20260506141031 70 143 4.0 10.0 0.00 0.00 0.00 88 1014.5
20260506140519 70 175 3.0 10.0 0.00 0.00 0.00 88 1014.5
20260506140023 70 170 5.0 12.0 0.00 0.00 0.00 88 1014.4
20260506135524 70 174 5.0 12.0 0.00 0.00 0.00 88 1014.5
20260506135024 69 209 4.0 10.0 0.00 0.00 0.00 88 1014.5
20260506134546 69 154 4.0 8.0 0.00 0.00 0.00 88 1014.5
20260506134051 69 115 4.0 11.0 0.00 0.00 0.00 88 1014.6
20260506133519 69 171 3.0 11.0 0.00 0.00 0.00 89 1014.7
20260506133027 69 197 4.0 11.0 0.00 0.00 0.00 89 1014.6
20260506132529 68 194 4.0 10.0 0.00 0.00 0.00 90 1014.9
20260506132030 68 193 4.0 12.0 0.00 0.00 0.00 90 1014.8
20260506131519 68 222 6.0 12.0 0.00 0.00 0.00 91 1015.0
20260506131021 67 238 1.0 8.0 0.00 0.00 0.00 91 1015.0
20260506130521 67 189 2.0 9.0 0.00 0.00 0.00 91 1014.9
20260506130026 67 288 3.0 15.0 0.00 0.00 0.00 91 1014.6
20260506125531 67 192 4.0 15.0 0.00 0.00 0.00 91 1014.5
20260506125033 67 245 4.0 12.0 0.00 0.00 0.00 91 1014.6
20260506124514 67 282 4.0 12.0 0.00 0.00 0.00 91 1014.7
20260506124020 67 166 5.0 11.0 0.00 0.00 0.00 91 1014.6
20260506123520 67 197 4.0 11.0 0.00 0.00 0.00 91 1014.6
20260506123023 67 179 4.0 9.0 0.00 0.00 0.00 91 1014.7
20260506122529 66 266 3.0 10.0 0.00 0.00 0.00 91 1014.4
20260506122030 66 161 1.0 10.0 0.00 0.00 0.00 91 1014.2
20260506121518 66 219 4.0 14.0 0.00 0.00 0.00 91 1014.2
20260506121020 66 171 4.0 19.0 0.00 0.00 0.00 91 1013.9
20260506120523 66 147 7.0 21.0 0.00 0.00 0.00 91 1013.8
20260506120030 66 192 2.0 12.0 0.00 0.00 0.00 91 1013.7
20260506115516 66 192 6.0 14.0 0.00 0.00 0.00 91 1013.6
20260506115022 66 158 4.0 14.0 0.00 0.00 0.00 91 1013.8
20260506114525 66 197 4.0 13.0 0.00 0.00 0.00 91 1013.8
20260506114030 66 232 7.0 13.0 0.00 0.00 0.00 91 1013.4
20260506113518 66 212 4.0 13.0 0.00 0.00 0.00 91 1013.3
20260506113040 66 198 6.0 11.0 0.00 0.00 0.00 90 1013.3
20260506112520 66 193 4.0 11.0 0.00 0.00 0.00 90 1013.3
20260506112046 66 195 4.0 9.0 0.00 0.00 0.00 90 1013.2
20260506111528 66 176 3.0 13.0 0.00 0.00 0.00 90 1013.2
20260506111030 66 196 6.0 14.0 0.00 0.00 0.00 90 1013.3
20260506110517 66 196 4.0 14.0 0.00 0.00 0.00 90 1013.2
20260506110017 66 198 4.0 14.0 0.00 0.00 0.00 90 1013.1
20260506105520 66 229 2.0 9.0 0.00 0.00 0.00 90 1013.0
20260506105025 66 132 5.0 10.0 0.00 0.00 0.00 90 1012.8
20260506104529 66 227 4.0 7.0 0.00 0.00 0.00 90 1012.9
20260506104030 66 205 3.0 7.0 0.00 0.00 0.00 90 1012.9
20260506103513 66 184 3.0 9.0 0.00 0.00 0.00 90 1012.8
20260506103032 66 190 5.0 9.0 0.00 0.00 0.00 90 1012.7
20260506102522 66 134 3.0 11.0 0.00 0.00 0.00 90 1012.7
20260506102038 65 144 3.0 8.0 0.00 0.00 0.00 90 1012.7
20260506101518 65 185 3.0 9.0 0.00 0.00 0.00 90 1012.5
20260506101020 65 175 4.0 9.0 0.00 0.00 0.00 90 1012.5
20260506100523 65 202 4.0 8.0 0.00 0.00 0.00 90 1012.3
20260506100043 65 190 1.0 8.0 0.00 0.00 0.00 90 1012.2
20260506095545 65 164 3.0 7.0 0.00 0.00 0.00 90 1012.2
20260506095045 65 152 3.0 7.0 0.00 0.00 0.00 90 1012.0
20260506094527 65 181 4.0 7.0 0.00 0.00 0.00 90 1011.9
20260506094030 65 154 4.0 9.0 0.00 0.00 0.00 90 1011.8
20260506093530 65 165 5.0 11.0 0.00 0.00 0.00 89 1011.7
20260506093024 65 175 6.0 12.0 0.00 0.00 0.00 90 1011.7
20260506092548 65 223 4.0 10.0 0.00 0.00 0.00 89 1011.6
20260506092025 65 189 4.0 10.0 0.00 0.00 0.00 89 1011.7
20260506091550 65 170 4.0 8.0 0.00 0.00 0.00 89 1011.7
20260506091032 65 145 2.0 14.0 0.00 0.00 0.00 89 1011.6
20260506090518 65 153 5.0 14.0 0.00 0.00 0.00 89 1011.4
20260506090020 65 148 5.0 11.0 0.00 0.00 0.00 89 1011.3
20260506085526 65 170 6.0 11.0 0.00 0.00 0.00 89 1011.2
20260506085050 65 157 4.0 9.0 0.00 0.00 0.00 88 1011.3
20260506084518 65 169 5.0 9.0 0.00 0.00 0.00 88 1011.4
20260506084043 65 195 5.0 9.0 0.00 0.00 0.00 88 1011.4
20260506083521 65 179 4.0 8.0 0.00 0.00 0.00 88 1011.6
20260506083025 65 134 5.0 9.0 0.00 0.00 0.00 88 1011.6
20260506082544 65 173 5.0 9.0 0.00 0.00 0.00 88 1011.6
20260506082049 65 163 6.0 9.0 0.00 0.00 0.00 88 1011.6
20260506081518 65 155 4.0 9.0 0.00 0.00 0.00 88 1011.6
20260506081041 65 182 6.0 9.0 0.00 0.00 0.00 88 1011.6
20260506080523 65 155 4.0 10.0 0.00 0.00 0.00 87 1011.7
20260506073020 66 142 5.0 10.0 0.00 0.00 0.00 84 1011.6
20260506072522 66 139 5.0 10.0 0.00 0.00 0.00 84 1011.8
20260506072043 66 172 6.0 10.0 0.00 0.00 0.00 84 1011.7
20260506071526 66 161 5.0 10.0 0.00 0.00 0.00 84 1011.8
20260506071029 66 175 5.0 10.0 0.00 0.00 0.00 83 1012.0
20260506070552 66 170 5.0 9.0 0.00 0.00 0.00 83 1012.0
20260506062019 67 178 4.0 9.0 0.00 0.00 0.00 81 1012.4
20260506061518 67 140 5.0 10.0 0.00 0.00 0.00 80 1012.4
20260506061022 67 188 5.0 15.0 0.00 0.00 0.00 80 1012.4
20260506060525 67 165 6.0 14.0 0.00 0.00 0.00 80 1012.4
20260506051020 68 159 5.0 17.0 0.00 0.00 0.00 78 1012.5
20260506050524 68 235 6.0 17.0 0.00 0.00 0.00 77 1012.6
20260506045025 68 165 8.0 17.0 0.00 0.00 0.00 77 1012.3
20260506044514 68 159 8.0 14.0 0.00 0.00 0.00 77 1012.1
20260506044032 68 202 7.0 19.0 0.00 0.00 0.00 77 1012.1
20260506043021 69 182 7.0 11.0 0.00 0.00 0.00 76 1012.2
20260506042014 69 125 8.0 18.0 0.00 0.00 0.00 77 1012.4
20260506041513 69 157 9.0 14.0 0.00 0.00 0.00 77 1012.4
20260506041022 68 155 8.0 17.0 0.00 0.00 0.00 77 1012.4
20260506040524 69 155 8.0 17.0 0.00 0.00 0.00 78 1012.4
20260506040027 68 149 8.0 16.0 0.00 0.00 0.00 78 1012.4
20260506035527 68 190 7.0 13.0 0.00 0.00 0.00 78 1012.4
20260506035015 68 204 7.0 15.0 0.00 0.00 0.00 79 1012.5
20260506034536 68 163 7.0 15.0 0.00 0.00 0.00 80 1012.4
20260506034040 67 178 6.0 12.0 0.00 0.00 0.00 81 1012.5
20260506033521 67 180 6.0 13.0 0.00 0.00 0.00 81 1012.5
20260506033019 67 146 7.0 13.0 0.00 0.00 0.00 81 1012.6
20260506032519 67 161 6.0 10.0 0.00 0.00 0.00 80 1012.6
20260506032023 67 167 6.0 10.0 0.00 0.00 0.00 81 1012.5
20260506031527 67 167 6.0 9.0 0.00 0.00 0.00 81 1012.3
20260506031049 66 156 5.0 9.0 0.00 0.00 0.00 81 1012.3
20260506030516 66 138 6.0 9.0 0.00 0.00 0.00 81 1012.3
20260506030020 66 163 6.0 9.0 0.00 0.00 0.00 81 1012.1
20260506025548 66 155 5.0 9.0 0.00 0.00 0.00 81 1012.1
20260506025029 66 134 6.0 9.0 0.00 0.00 0.00 80 1012.1
20260506024531 67 163 5.0 8.0 0.00 0.00 0.00 80 1012.1
20260506024020 67 163 6.0 9.0 0.00 0.00 0.00 80 1012.0
20260506023522 67 128 6.0 9.0 0.00 0.00 0.00 78 1011.9
20260506023023 67 137 5.0 9.0 0.00 0.00 0.00 79 1012.0
20260506022545 67 144 6.0 9.0 0.00 0.00 0.00 80 1011.9
20260506022030 67 164 6.0 10.0 0.00 0.00 0.00 79 1011.8
20260506021518 67 143 6.0 10.0 0.00 0.00 0.00 78 1011.9
20260506021039 67 152 5.0 8.0 0.00 0.00 0.00 77 1011.9
20260506020521 68 159 5.0 8.0 0.00 0.00 0.00 77 1011.9
20260506020022 68 130 5.0 8.0 0.00 0.00 0.00 76 1012.0
20260506015526 68 149 5.0 9.0 0.00 0.00 0.00 77 1011.8
20260506015029 68 136 5.0 9.0 0.00 0.00 0.00 77 1011.7
20260506014517 68 154 5.0 7.0 0.00 0.00 0.00 78 1011.8
20260506014019 68 155 5.0 7.0 0.00 0.00 0.00 77 1011.7
20260506013520 68 153 4.0 5.0 0.00 0.00 0.00 77 1011.9
20260506013045 69 138 4.0 7.0 0.00 0.00 0.00 76 1012.0
20260506012527 69 142 4.0 7.0 0.00 0.00 0.00 73 1012.1
20260506012028 69 176 4.0 5.0 0.00 0.00 0.00 74 1012.1
20260506011531 69 154 3.0 5.0 0.00 0.00 0.00 76 1012.0
20260506011052 69 138 4.0 5.0 0.00 0.00 0.00 75 1012.0
20260506010516 69 150 3.0 5.0 0.00 0.00 0.00 76 1011.9
20260506010019 69 143 4.0 5.0 0.00 0.00 0.00 76 1011.9
20260506005523 69 148 4.0 5.0 0.00 0.00 0.00 76 1011.9
20260506005023 69 148 4.0 5.0 0.00 0.00 0.00 75 1011.9
20260506004524 70 135 3.0 5.0 0.00 0.00 0.00 76 1011.9
20260506004022 70 158 3.0 4.0 0.00 0.00 0.00 73 1011.8
20260506003527 70 136 3.0 4.0 0.00 0.00 0.00 73 1011.8
20260506003027 70 139 3.0 4.0 0.00 0.00 0.00 74 1011.8
20260506002515 70 136 3.0 5.0 0.00 0.00 0.00 72 1011.7
20260506002021 71 167 2.0 5.0 0.00 0.00 0.00 74 1011.8
20260506001523 71 140 4.0 7.0 0.00 0.00 0.00 72 1011.9
20260506001025 72 159 4.0 7.0 0.00 0.00 0.00 69 1012.0
20260506000548 72 168 3.0 5.0 0.00 0.00 0.00 67 1012.1
20260506000032 72 166 1.0 3.0 0.00 0.00 0.00 68 1012.1
20260505235515 71 161 1.0 6.0 0.00 0.00 0.00 69 1012.1
20260505235018 71 146 3.0 7.0 0.00 0.00 0.00 71 1011.9
20260505234520 72 152 4.0 7.0 0.00 0.00 0.00 71 1011.7
20260505234023 72 144 4.0 7.0 0.00 0.00 0.00 72 1011.9
20260505233526 72 126 5.0 8.0 0.00 0.00 0.00 71 1011.9
20260505233030 72 139 4.0 8.0 0.00 0.00 0.00 72 1012.1
20260505232518 72 128 5.0 7.0 0.00 0.00 0.00 70 1012.2
20260505232039 72 123 5.0 7.0 0.00 0.00 0.00 69 1012.2
20260505231519 73 121 4.0 6.0 0.00 0.00 0.00 68 1012.3
20260505231048 73 130 3.0 5.0 0.00 0.00 0.00 67 1012.4
20260505230527 73 154 4.0 7.0 0.00 0.00 0.00 66 1012.2
20260505230015 73 155 4.0 7.0 0.00 0.00 0.00 66 1012.3
20260505225538 73 136 4.0 7.0 0.00 0.00 0.00 66 1012.3
20260505225020 73 157 5.0 7.0 0.00 0.00 0.00 65 1012.2
20260505224523 73 142 4.0 8.0 0.00 0.00 0.00 64 1012.3
20260505224027 74 157 4.0 9.0 0.00 0.00 0.00 64 1012.4
20260505223530 74 146 4.0 9.0 0.00 0.00 0.00 62 1012.5
20260505223033 74 148 4.0 9.0 0.00 0.00 0.00 62 1012.3
20260505222530 74 133 4.0 10.0 0.00 0.00 0.00 62 1012.3
20260505222020 74 146 6.0 10.0 0.00 0.00 0.00 62 1012.2
20260505221525 74 111 6.0 11.0 0.00 0.00 0.00 64 1012.3
20260505221029 74 136 5.0 10.0 0.00 0.00 0.00 64 1012.3
20260505220519 74 140 5.0 10.0 0.00 0.00 0.00 62 1012.3
20260505220023 75 160 6.0 8.0 0.00 0.00 0.00 62 1012.3
20260505215523 75 169 5.0 8.0 0.00 0.00 0.00 61 1012.4
20260505215021 75 153 4.0 10.0 0.00 0.00 0.00 60 1012.5
20260505214524 75 163 3.0 10.0 0.00 0.00 0.00 59 1012.6
20260505214052 75 215 4.0 12.0 0.00 0.00 0.00 62 1012.6
20260505213520 75 197 7.0 12.0 0.00 0.00 0.00 57 1012.6
20260505213026 75 191 7.0 14.0 0.00 0.00 0.00 58 1012.5
20260505212524 75 189 5.0 12.0 0.00 0.00 0.00 57 1012.6
20260505212028 76 238 4.0 12.0 0.00 0.00 0.00 57 1012.5
20260505211529 76 140 6.0 14.0 0.00 0.00 0.00 59 1012.5
20260505211018 77 205 7.0 13.0 0.00 0.00 0.00 56 1012.4
20260505210519 77 157 7.0 15.0 0.00 0.00 0.00 55 1012.4
20260505210047 77 137 8.0 15.0 0.00 0.00 0.00 56 1012.2
20260505205524 77 170 6.0 10.0 0.00 0.00 0.00 55 1012.4
20260505205024 77 113 7.0 13.0 0.00 0.00 0.00 54 1012.5
20260505204525 77 171 7.0 15.0 0.00 0.00 0.00 57 1012.7
20260505204030 78 188 6.0 15.0 0.00 0.00 0.00 56 1012.5
20260505203518 77 144 9.0 17.0 0.00 0.00 0.00 57 1012.7
20260505203015 78 150 10.0 17.0 0.00 0.00 0.00 55 1012.7
20260505202537 77 138 9.0 15.0 0.00 0.00 0.00 57 1012.7
20260505202022 78 265 7.0 15.0 0.00 0.00 0.00 54 1012.9
20260505201521 77 109 5.0 11.0 0.00 0.00 0.00 58 1013.0
20260505200521 78 149 4.0 12.0 0.00 0.00 0.00 58 1013.3
20260505200022 77 209 8.0 12.0 0.00 0.00 0.00 54 1013.3
20260505195526 77 215 5.0 15.0 0.00 0.00 0.00 56 1013.3
20260505195050 78 159 10.0 15.0 0.00 0.00 0.00 58 1013.2
20260505194519 76 180 6.0 10.0 0.00 0.00 0.00 60 1013.4
20260505194023 78 216 5.0 14.0 0.00 0.00 0.00 57 1013.3
20260505193522 77 178 5.0 18.0 0.00 0.00 0.00 56 1013.5
20260505193048 76 173 8.0 14.0 0.00 0.00 0.00 57 1013.3
20260505192530 78 199 4.0 12.0 0.00 0.00 0.00 57 1013.4
20260505192019 78 202 4.0 12.0 0.00 0.00 0.00 57 1013.4
20260505191546 77 115 7.0 12.0 0.00 0.00 0.00 55 1013.5
20260505191025 77 138 5.0 13.0 0.00 0.00 0.00 59 1013.6
20260505190522 77 185 6.0 13.0 0.00 0.00 0.00 58 1013.8
20260505190042 75 161 8.0 12.0 0.00 0.00 0.00 61 1013.8
20260505185518 75 225 6.0 15.0 0.00 0.00 0.00 59 1013.9
20260505185024 75 137 9.0 15.0 0.00 0.00 0.00 56 1013.9
20260505184525 74 193 6.0 14.0 0.00 0.00 0.00 60 1013.8
20260505184026 75 178 4.0 14.0 0.00 0.00 0.00 58 1013.9
20260505183527 75 132 5.0 14.0 0.00 0.00 0.00 59 1014.0
20260505183022 76 152 7.0 14.0 0.00 0.00 0.00 61 1014.0
20260505182522 76 69 5.0 16.0 0.00 0.00 0.00 59 1014.0
20260505182025 74 117 10.0 16.0 0.00 0.00 0.00 60 1014.1
20260505181526 73 142 7.0 14.0 0.00 0.00 0.00 59 1014.2
20260505181032 73 159 8.0 14.0 0.00 0.00 0.00 61 1014.3
20260505180513 73 153 6.0 13.0 0.00 0.00 0.00 60 1014.2
20260505180035 73 186 8.0 11.0 0.00 0.00 0.00 59 1014.4
20260505175520 74 180 4.0 10.0 0.00 0.00 0.00 62 1014.4
20260505175018 73 175 4.0 11.0 0.00 0.00 0.00 61 1014.5
20260505174520 73 153 4.0 14.0 0.00 0.00 0.00 60 1014.7
20260505174022 74 189 8.0 16.0 0.00 0.00 0.00 59 1014.7
20260505173524 74 144 10.0 16.0 0.00 0.00 0.00 60 1014.6
20260505173028 74 132 5.0 12.0 0.00 0.00 0.00 59 1014.7
20260505172515 74 162 7.0 12.0 0.00 0.00 0.00 61 1014.7
20260505172020 74 167 7.0 14.0 0.00 0.00 0.00 60 1014.7
20260505171518 74 107 6.0 11.0 0.00 0.00 0.00 59 1014.8
20260505171038 74 200 5.0 13.0 0.00 0.00 0.00 57 1015.0
20260505170520 73 194 5.0 11.0 0.00 0.00 0.00 61 1014.9
20260505170020 73 143 1.0 12.0 0.00 0.00 0.00 63 1015.0
20260505165548 73 255 3.0 10.0 0.00 0.00 0.00 63 1014.9
20260505165024 72 199 4.0 10.0 0.00 0.00 0.00 65 1015.0
20260505164526 72 192 4.0 11.0 0.00 0.00 0.00 62 1014.9
20260505164027 72 164 4.0 10.0 0.00 0.00 0.00 61 1014.9
20260505163529 72 212 3.0 12.0 0.00 0.00 0.00 63 1015.0
20260505163018 74 174 7.0 14.0 0.00 0.00 0.00 62 1014.9
20260505162520 73 202 5.0 15.0 0.00 0.00 0.00 63 1014.8
20260505162021 71 167 7.0 15.0 0.00 0.00 0.00 62 1014.8
20260505161542 71 151 7.0 12.0 0.00 0.00 0.00 62 1014.8